Regional Weather Roundup
Issued by NWS

Home | Current Version | Previous Version | Graphics & Text | Print | Product List | Glossary On
Versions: 1 2 3 4 5 6 7 8 9 10 11 12 13 14 15 16 17 18 19 20 21 22 23 24 25 26 27 28 29 30 31 32 33 34 35 36 37 38 39 40 41 42 43 44 45 46 47 48 49 50
000
ASUS43 KLSX 020357
RWRMO

WEATHER SUMMARY FOR MISSOURI
NATIONAL WEATHER SERVICE SPRINGFIELD MO
1100 PM CDT TUE SEP 01 2015

NOTE: "FAIR" INDICATES FEW OR NO CLOUDS BELOW 12,000 FEET WITH NO
       SIGNIFICANT WEATHER AND/OR OBSTRUCTIONS TO VISIBILITY.
       CURRENT SKY AND/OR WEATHER CONDITIONS ARE NOT AVAILABLE FOR
       CHILLICOTHE AND FARMINGTON.

MOZ001>031-035>038-043-044-053-054-020500-
...NORTHERN AND WESTERN MISSOURI...

CITY           SKY/WX    TMP DP  RH WIND       PRES   REMARKS
KANSAS CTY INT CLEAR     73  66  78 S10       30.02S
LEE`S SUMMIT   CLEAR     77  64  64 S10       30.04S
ST JOSEPH      PTCLDY    77  67  71 S9        29.99F
CHILLICOTHE      N/A     73  69  87 CALM      30.04S

$$
MOZ066>068-077>081-088>096-101>105-020500-
...SOUTHWEST MISSOURI...

CITY           SKY/WX    TMP DP  RH WIND       PRES   REMARKS
SPRINGFIELD    CLEAR     75  69  81 S7        30.09S
JOPLIN         CLEAR     75  65  70 SE7       30.06S

$$
MOZ032>034-039>042-045>050-055>058-069>072-020500-
...CENTRAL MISSOURI...

CITY           SKY/WX    TMP DP  RH WIND       PRES   REMARKS
COLUMBIA       NOT AVBL
JEFFERSON CITY CLEAR     78  69  73 E3        30.06S
ROLLA          CLEAR     74  69  85 S6        30.09R
SEDALIA        CLEAR     74  68  81 S7        30.07S

$$
MOZ051-052-059>065-020500-
...EAST CENTRAL MISSOURI...

CITY           SKY/WX    TMP DP  RH WIND       PRES   REMARKS
ST LOUIS INTL  CLEAR     82  70  66 S8        30.08F

$$
MOZ072>076-082>087-097>100-106>115-020500-
...SOUTH CENTRAL AND SOUTHEAST MISSOURI...

CITY           SKY/WX    TMP DP  RH WIND       PRES   REMARKS
CAPE GIRARDEAU CLEAR     71  69  93 CALM      30.09S
POPLAR BLUFF   CLEAR     73  70  90 CALM      30.08S
WEST PLAINS    CLEAR     75  69  81 S5        30.13S

$$


USA.gov is the U.S. government's official web portal to all federal, state and local government web resources and services.